User: anonymous   Login
Location: Unspecified
(0.0000°N, 0.0000°E)
Time: 19:46:50
(UTC+00:00)
Language:

Transit 2A Rocket - Orbit

View from above orbital plane
View from above orbital plane
View from above satellite
View from above satellite

Ground track
Ground track

The orbit data is extracted from the following two-line orbital elements,

1 00047U 60007C   17292.17747577 -.00000014  00000-0  22005-4 0  9999
2 00047  66.6657 234.4677 0234837 293.7564  63.9069 14.41946432994930
Epoch (UTC): 19 October 2017 04:15:33
Eccentricity: 0.0234837
inclination: 66.6657°
perigee height: 584 km
apogee height: 919 km
right ascension of ascending node: 234.4677°
argument of perigee: 293.7564°
revolutions per day: 14.41946432
mean anomaly at epoch: 63.9069°
orbit number at epoch: 99493

The dashed part of the orbit path shows where the satellite is in the earth's shadow,  

DLR